Dewpoint
62 61 61 60 60 60 61 60 60 60 60 61 61 61 61 61 60 60 60 60 60 60 60 60 60 60 60 60 61 61 60 60 60 60 59 59 60 60 60 60 60 60 60 60 59 59 59 58 57 57 56 55 55 55 54 53 53 52 52 52 52 52 52 52 51 51 51 49 44
62 61 60 58 58 59 60 60 60 59 60 61 61 61 61 61 60 60 60 60 60 60 60 61 60 61 61 60 61 61 60 60 60 60 60 60 60 60 60 60 60 60 59 59 59 59 59 58 57 56 55 55 55 55 54 53 53 53 53 52 52 52 52 52 51 51 51 50 46
62 61 61 60 60 60 60 60 60 60 60 60 61 61 61 61 60 60 60 60 60 60 60 61 60 60 61 61 61 61 61 60 60 60 60 60 60 60 60 60 60 59 59 59 59 59 59 58 57 56 55 55 55 54 54 54 54 53 53 53 52 52 52 51 51 51 50 51 46
62 62 61 61 60 60 60 60 60 60 60 60 60 60 60 60 60 60 60 60 60 61 61 60 60 60 60 61 61 61 61 60 60 60 60 60 60 60 60 60 60 59 59 59 59 59 59 58 57 56 55 55 54 54 54 54 54 53 53 53 52 51 51 51 50 49 47 47 46
61 61 61 61 61 60 60 60 60 60 60 60 60 60 60 60 60 60 60 60 60 60 60 60 61 60 60 60 60 61 61 60 58 59 60 60 60 60 60 60 59 59 59 59 59 59 58 58 57 56 55 55 55 55 54 54 54 53 53 52 51 51 51 50 48 46 45 44 44
60 61 61 61 61 61 61 60 60 60 60 60 60 60 60 60 60 60 60 60 60 60 60 60 60 60 60 60 60 60 60 60 60 60 60 60 60 60 60 60 59 59 59 59 59 59 58 58 57 56 56 55 55 55 55 54 54 54 53 53 51 50 49 48 46 45 44 42 44
60 60 60 61 61 61 61 61 60 60 59 59 59 59 60 60 60 60 60 60 60 60 60 58 59 60 60 60 60 60 60 60 60 60 60 60 60 60 59 59 59 59 59 59 59 59 58 58 57 56 55 54 55 55 55 54 54 54 54 53 51 49 47 46 46 45 44 43 44
59 60 60 60 60 60 60 60 60 60 60 60 59 59 59 59 59 59 60 60 60 60 60 59 60 60 60 60 60 60 60 60 60 60 60 60 60 60 59 59 59 59 59 59 59 58 58 58 57 56 55 55 55 55 55 54 54 54 54 53 52 49 46 46 45 45 45 45 45
59 59 59 60 60 60 60 60 60 60 60 60 60 59 59 59 59 59 59 59 59 59 59 59 60 60 60 60 60 60 60 60 60 60 60 60 60 60 59 59 59 59 59 59 58 58 58 58 57 57 56 55 55 55 55 54 54 54 54 54 53 51 48 47 46 46 47 46 46
58 58 59 59 59 59 59 60 60 60 60 60 60 59 59 57 58 59 59 59 59 59 59 59 60 60 60 60 60 60 60 60 60 60 60 59 59 59 59 59 59 59 58 58 58 58 58 58 57 57 56 56 55 55 54 54 54 54 54 54 53 51 49 48 47 48 48 49 48
58 58 58 59 59 59 58 59 59 59 59 59 59 59 59 57 58 58 59 58 58 58 59 59 59 59 59 60 59 59 59 60 60 60 60 59 59 59 59 59 59 59 58 58 58 57 57 57 57 56 56 56 55 55 54 54 54 54 54 54 53 51 49 48 48 49 49 50 49
58 58 58 58 58 58 58 58 58 58 58 59 59 59 59 58 58 58 58 58 58 58 58 58 59 59 59 59 59 59 59 59 60 60 59 59 59 59 59 59 59 59 58 58 57 57 57 57 56 56 56 56 55 55 54 54 54 54 54 54 52 51 49 47 48 49 50 50 50
58 58 58 58 58 58 58 58 58 58 58 58 58 58 58 58 58 57 57 58 57 58 58 58 58 58 58 58 58 59 59 59 59 59 59 59 59 59 59 59 59 59 58 58 57 57 56 56 56 56 56 56 55 55 55 54 54 54 54 53 52 51 49 48 49 49 50 50 49
57 58 58 58 57 57 57 57 57 57 57 57 57 57 58 58 57 57 57 58 57 58 58 58 57 57 58 58 58 58 58 58 58 58 59 59 59 59 59 58 59 59 58 57 57 56 56 56 55 55 55 55 55 55 55 54 54 53 53 52 51 51 49 48 49 49 49 49 47
57 57 57 57 57 57 57 57 57 57 57 57 57 57 57 57 57 57 57 58 57 57 57 57 57 57 57 57 57 57 57 57 58 58 58 58 58 58 58 58 58 58 58 57 56 56 56 55 55 55 55 55 55 55 55 54 54 53 52 51 51 51 50 49 49 49 49 47 46
57 57 57 57 56 56 56 56 56 56 56 56 57 57 57 57 57 57 57 57 57 57 57 57 57 57 57 56 56 57 57 57 57 57 57 57 57 57 58 57 58 58 57 56 56 56 56 55 55 55 55 55 55 55 55 54 54 53 52 51 51 51 50 50 50 50 48 46 44
56 56 56 56 56 56 56 56 56 56 56 56 56 56 57 57 57 56 56 56 57 57 56 56 56 57 56 56 56 56 56 56 56 56 56 56 56 57 57 57 57 57 56 56 55 55 55 55 55 55 55 55 54 54 54 54 54 53 52 52 51 51 51 51 51 50 48 46 43
56 56 56 56 56 55 55 55 56 56 56 56 56 56 56 57 57 56 56 56 56 56 56 56 56 56 56 56 56 56 56 56 56 56 55 55 56 56 56 56 56 56 55 55 55 55 55 55 55 55 55 54 54 54 54 54 54 53 53 53 53 52 52 51 51 51 49 46 43
55 55 55 55 55 55 55 55 55 55 55 55 56 56 56 56 56 56 56 56 56 56 56 55 56 56 56 56 56 55 55 56 56 55 55 55 55 55 55 55 55 55 55 55 55 55 55 55 55 55 55 54 54 54 54 54 54 54 53 53 53 53 53 53 51 49 46 44 42
55 55 55 55 55 55 55 55 55 55 55 55 56 56 56 56 56 56 56 56 55 55 55 55 55 55 55 55 55 55 55 55 56 56 55 55 55 55 55 55 55 55 55 55 55 55 55 55 55 55 55 54 54 54 54 54 54 54 54 54 54 53 52 51 47 44 42 40 39
55 55 55 55 55 55 55 55 55 55 55 55 56 56 56 56 55 55 55 55 55 55 55 55 55 55 55 55 55 55 55 55 55 55 55 55 55 55 55 55 55 55 55 55 55 55 55 55 55 55 54 54 54 53 53 53 53 53 53 53 52 51 48 45 42 40 39 38 37
55 55 55 55 55 55 55 55 55 55 55 55 55 55 55 55 55 55 55 55 55 55 55 55 55 55 55 55 55 55 55 55 55 55 55 55 55 55 55 55 55 55 55 55 55 55 55 55 55 54 54 53 53 53 53 53 53 52 51 49 46 45 43 41 40 38 37 37 36
55 55 55 55 55 55 55 55 55 55 55 55 55 55 55 55 55 55 55 55 55 55 55 55 55 55 55 55 54 54 54 54 54 54 54 54 55 55 55 55 55 55 55 55 55 55 55 54 54 54 53 53 53 53 53 53 51 49 46 44 42 41 40 39 38 37 37 36 36
55 55 55 55 55 55 55 55 55 55 55 55 55 55 55 55 55 55 55 55 55 55 55 55 55 55 55 54 54 53 53 53 53 53 53 54 54 54 55 55 55 55 55 55 54 53 53 53 54 53 53 53 53 53 53 53 50 47 44 42 40 39 38 38 37 37 36 36 36
55 54 54 54 55 55 55 55 55 55 55 55 55 55 55 55 55 55 54 54 55 55 55 55 55 55 55 54 53 53 53 52 52 52 53 53 53 54 54 54 54 54 54 52 48 47 48 49 51 53 53 53 53 53 52 51 48 45 42 41 39 38 37 37 36 36 36 35 35
55 54 54 54 54 55 55 55 55 55 55 55 55 55 55 54 54 54 54 54 54 54 54 54 54 54 53 54 53 53 53 52 52 52 52 52 53 53 53 53 53 54 52 49 45 44 45 46 47 49 51 54 52 50 48 46 44 43 42 40 39 38 37 36 35 35 34 34 34
54 54 54 54 54 54 55 55 55 55 55 55 55 54 54 54 54 54 54 54 54 54 54 54 54 53 52 54 53 53 52 53 52 52 52 52 52 53 53 53 53 53 51 46 43 43 44 44 45 46 48 50 48 46 45 43 42 42 41 40 39 37 37 35 34 34 33 33 33
54 54 54 54 54 54 55 55 55 55 54 54 54 54 54 54 54 54 54 53 54 54 54 54 54 54 54 54 53 52 52 52 52 52 52 53 53 53 53 52 51 48 46 43 42 42 43 43 43 44 44 44 45 44 43 42 41 41 40 39 38 37 36 35 34 33 33 33 33
55 55 54 54 54 54 55 55 55 54 54 54 54 54 54 54 54 53 53 53 53 53 54 54 54 54 54 53 53 52 52 52 53 53 53 51 49 47 46 46 45 43 42 42 42 42 42 42 42 42 42 42 43 42 42 41 40 39 38 38 37 36 35 35 34 33 33 32 32
55 55 54 54 54 54 55 54 55 55 55 55 54 54 54 53 53 53 53 53 53 53 53 54 54 54 54 53 53 53 53 53 52 50 47 44 44 44 44 44 44 43 42 41 41 41 41 40 40 39 39 40 40 40 40 39 39 38 37 37 36 36 35 34 33 33 32 32 31
55 55 54 54 55 55 55 55 55 55 55 55 54 54 53 53 53 53 53 53 53 53 53 54 54 53 53 53 53 53 52 51 48 46 44 43 42 42 43 43 43 42 41 40 40 40 39 39 38 38 38 38 38 38 38 37 37 36 36 36 35 35 34 34 33 33 32 31 30
54 55 55 55 55 55 55 55 55 55 55 54 54 54 53 53 54 54 54 53 53 53 53 53 53 53 53 53 52 51 48 46 44 43 42 42 41 41 41 41 41 40 39 39 38 38 38 37 37 37 36 36 36 36 35 35 34 34 33 33 33 33 33 33 32 32 31 30 30
54 54 55 55 55 55 55 55 55 55 55 54 54 54 54 54 54 54 54 53 53 53 52 52 52 51 51 49 46 44 43 42 41 40 40 40 39 39 39 39 39 39 38 37 37 37 37 36 36 35 34 34 34 33 33 33 32 31 31 31 31 31 31 31 30 30 30 29 29
54 54 55 55 55 55 55 55 54 55 55 54 54 54 54 54 53 51 50 48 48 48 47 47 46 46 45 44 43 42 41 40 40 39 39 38 38 37 37 37 37 37 37 37 36 36 36 35 34 34 33 33 32 32 31 30 29 29 28 28 28 28 28 28 28 28 28 28 28
55 54 55 55 55 55 55 54 54 54 54 54 53 52 51 51 49 47 46 45 44 44 44 43 42 42 42 41 41 40 39 38 38 38 37 37 37 36 36 36 36 36 36 36 36 35 35 34 33 33 32 31 30 30 29 28 28 27 27 27 26 26 26 26 27 27 27 27 27
55 55 55 55 55 55 55 54 54 53 51 50 49 48 48 47 46 45 44 43 42 42 42 41 41 40 39 39 39 38 38 37 37 37 37 36 35 35 35 35 35 35 35 35 35 34 34 33 33 32 31 30 29 28 27 27 26 26 25 25 25 25 25 25 26 26 26 26 26
55 55 55 55 55 54 54 53 51 49 47 46 46 46 46 45 45 44 43 42 41 40 39 39 38 38 37 37 37 37 37 37 36 36 36 35 34 34 34 34 34 34 34 34 34 34 33 33 33 32 31 29 28 28 27 26 25 25 24 24 24 24 24 25 25 25 25 26 26
55 55 55 55 54 54 52 50 47 46 45 44 44 44 44 44 43 42 41 40 38 37 37 37 36 36 36 36 36 35 35 35 35 35 34 34 34 33 33 33 33 33 33 34 33 33 33 33 32 31 30 28 28 27 26 26 25 24 24 24 24 24 24 25 25 25 25 25 26
55 55 55 55 53 51 48 46 44 44 43 43 42 42 42 42 41 41 40 38 37 37 36 35 35 34 34 34 34 34 33 34 34 34 33 33 33 33 33 33 33 33 33 33 33 33 33 32 32 31 30 28 28 27 26 25 24 24 24 24 24 24 24 24 24 24 25 25 26
55 55 55 54 51 47 45 44 43 42 42 42 41 40 40 40 39 39 38 37 36 35 35 34 34 34 33 33 33 33 33 33 33 33 33 33 33 33 32 32 32 32 32 33 33 32 32 32 31 31 30 28 28 27 26 25 24 24 23 23 23 23 23 24 24 24 24 24 25
55 54 53 51 47 45 43 42 42 42 41 40 39 39 38 38 38 37 37 36 35 34 34 33 33 33 33 33 32 32 31 31 32 32 32 32 32 32 32 32 32 32 32 32 32 32 32 31 31 30 29 28 27 26 25 24 24 23 23 22 22 22 22 22 23 23 23 23 24